Погода в Виноградном

Россия / Республика Северная Осетия — Алания     43°41′56″N   44°29′14″E
темп.,
°C
ветер,
м/с
пор.,
м/с
влажн.,
%
обл.,
%
осадки,
мм/ч
давл.,
гПа
погр.,
м
10 мая, пн
пн1000:00+8зсз61378100 0.2 1022839
03:00+8зсз6137299 0.2 1022766
06:00+9з41169100 0.0 1022854
09:00+12сз8115290 0.0 10221980
12:00+13сз6846100 0.0 10202187
15:00+15зсз684178 0.0 10192258
18:00+12юз5759100 0.0 1020245
21:00+8зюз4786100 0.6 1022230
11 мая, вт
вт1100:00+7юз358875 0.1 102171
03:00+5зюз2290100 0.1 102014
06:00+7вюв128394 0.0 102089
09:00+12всв4663100 0.0 1019976
12:00+13вюв5760100 0.1 10181331
15:00+16в3450100 0.1 10161794
18:00+13всв2567100 0.0 1016115
21:00+12вюв496198 0.0 1017383
12 мая, ср
ср1200:00+7в34854 0.0 101861
03:00+6вюв22900 0.0 101719
06:00+8в12840 0.0 101884
09:00+14в33620 0.0 1017769
12:00+18в34530 0.0 10171287
15:00+20в33500 0.0 10161418
18:00+19в22630 0.0 101633
21:00+14юв22720 0.0 101611
13 мая, чт
чт1300:00+12в33820 0.0 101627
03:00+11ю11850 0.0 101510
06:00+13всв11800 0.0 101646
09:00+19в34630 0.0 1016594
12:00+23в45540 0.0 1015956
15:00+25в44487 0.0 10141214
18:00+23вюв22622 0.0 101439
21:00+17в22725 0.0 101511
14 мая, пт
пт1400:00+14в22880 0.0 101524
03:00+13в229011 0.0 101521
06:00+15в22850 0.0 101673
09:00+21всв22640 0.0 1015439
12:00+26в34530 0.0 1014806
15:00+28в34480 0.0 10131181
18:00+26в22621 0.0 101215
21:00+17в47725 0.0 101398